N7LK Weather Reports


Display with metric or nautical units.
time (UTC)temp
F
wind
direction
speed
MPH
gust
MPH
rain 1hr
in
rain 24hr
in
rain mn
in
humidity
%
barometer
mb
20260508140339 74 66 0.0 4.0 0.00 0.00 0.00 33 1010.9
20260508135330 73 75 1.0 6.0 0.00 0.00 0.00 33 1010.8
20260508134358 72 74 1.0 5.0 0.00 0.00 0.00 33 1010.8
20260508133345 71 71 2.0 6.0 0.00 0.00 0.00 33 1010.7
20260508132332 70 74 0.0 6.0 0.00 0.00 0.00 34 1010.4
20260508131344 70 52 1.0 6.0 0.00 0.00 0.00 34 1010.3
20260508130331 69 64 0.0 0.0 0.00 0.00 0.00 34 1010.1
20260508125338 70 78 0.0 0.0 0.00 0.00 0.00 33 1009.9
20260508124406 70 67 2.0 5.0 0.00 0.00 0.00 33 1009.8
20260508123336 70 62 0.0 5.0 0.00 0.00 0.00 33 1009.8
20260508122344 70 74 0.0 4.0 0.00 0.00 0.00 33 1009.6
20260508121332 70 112 0.0 4.0 0.00 0.00 0.00 32 1009.5
20260508120359 70 75 1.0 5.0 0.00 0.00 0.00 31 1009.4
20260508115330 70 71 0.0 3.0 0.00 0.00 0.00 31 1009.3
20260508114336 70 65 0.0 4.0 0.00 0.00 0.00 30 1009.4
20260508113403 70 90 0.0 5.0 0.00 0.00 0.00 30 1009.2
20260508112331 71 55 0.0 7.0 0.00 0.00 0.00 29 1009.3
20260508111402 71 80 0.0 6.0 0.00 0.00 0.00 28 1009.3
20260508110328 71 81 0.0 4.0 0.00 0.00 0.00 27 1009.3
20260508105335 71 78 0.0 2.0 0.00 0.00 0.00 26 1009.2
20260508104341 72 85 0.0 4.0 0.00 0.00 0.00 25 1009.2
20260508103332 72 81 1.0 4.0 0.00 0.00 0.00 24 1009.1
20260508102339 72 71 3.0 5.0 0.00 0.00 0.00 24 1009.1
20260508101344 72 111 1.0 6.0 0.00 0.00 0.00 23 1009.0
20260508100331 73 98 0.0 5.0 0.00 0.00 0.00 22 1009.1
20260508095343 73 100 0.0 5.0 0.00 0.00 0.00 22 1009.0
20260508094331 73 82 1.0 5.0 0.00 0.00 0.00 22 1009.0
20260508093358 74 83 0.0 8.0 0.00 0.00 0.00 23 1008.9
20260508092343 74 72 0.0 3.0 0.00 0.00 0.00 23 1008.9
20260508091350 74 82 0.0 1.0 0.00 0.00 0.00 23 1008.9
20260508090340 74 75 0.0 1.0 0.00 0.00 0.00 23 1008.8
20260508085406 74 97 0.0 0.0 0.00 0.00 0.00 24 1008.8
20260508084331 74 64 0.0 0.0 0.00 0.00 0.00 24 1008.8
20260508083359 74 78 0.0 0.0 0.00 0.00 0.00 24 1008.9
20260508082329 74 52 0.0 2.0 0.00 0.00 0.00 23 1009.0
20260508081336 75 94 1.0 2.0 0.00 0.00 0.00 25 1009.0
20260508080343 75 11 0.0 0.0 0.00 0.00 0.00 23 1009.0
20260508075332 76 304 0.0 0.0 0.00 0.00 0.00 23 1008.9
20260508074402 76 27 0.0 0.0 0.00 0.00 0.00 22 1008.9
20260508073329 77 27 0.0 0.0 0.00 0.00 0.00 21 1008.9
20260508072336 77 329 0.0 0.0 0.00 0.00 0.00 21 1008.8
20260508071342 78 329 0.0 0.0 0.00 0.00 0.00 20 1008.7
20260508070348 78 327 0.0 0.0 0.00 0.00 0.00 20 1008.5
20260508065358 79 327 0.0 0.0 0.00 0.00 0.00 18 1008.5
20260508064345 79 292 0.0 0.0 0.00 0.00 0.00 18 1008.4
20260508063353 80 277 0.0 0.0 0.00 0.00 0.00 17 1008.6
20260508062359 81 277 0.0 0.0 0.00 0.00 0.00 16 1008.5
20260508061406 82 305 0.0 0.0 0.00 0.00 0.00 16 1008.5
20260508060336 82 305 0.0 2.0 0.00 0.00 0.00 15 1008.6
20260508055343 82 296 0.0 2.0 0.00 0.00 0.00 15 1008.6
20260508054351 82 279 0.0 4.0 0.00 0.00 0.00 15 1008.5
20260508053338 81 290 1.0 8.0 0.00 0.00 0.00 15 1008.5
20260508052330 81 263 0.0 2.0 0.00 0.00 0.00 16 1008.5
20260508051335 81 268 0.0 2.0 0.00 0.00 0.00 17 1008.5
20260508050343 82 248 0.0 0.0 0.00 0.00 0.00 17 1008.5
20260508045330 82 243 0.0 0.0 0.00 0.00 0.00 16 1008.4
20260508044342 83 243 0.0 0.0 0.00 0.00 0.00 15 1008.3
20260508043328 84 243 0.0 0.0 0.00 0.00 0.00 14 1008.2
20260508042335 85 243 0.0 0.0 0.00 0.00 0.00 15 1008.1
20260508041327 86 243 0.0 0.0 0.00 0.00 0.00 14 1008.0
20260508040334 86 243 0.0 0.0 0.00 0.00 0.00 13 1007.9
20260508035401 87 243 0.0 0.0 0.00 0.00 0.00 12 1007.9
20260508034326 87 238 0.0 3.0 0.00 0.00 0.00 12 1007.7
20260508033353 88 242 0.0 3.0 0.00 0.00 0.00 12 1007.6
20260508032342 88 228 0.0 3.0 0.00 0.00 0.00 12 1007.4
20260508031329 88 255 0.0 3.0 0.00 0.00 0.00 11 1007.3
20260508030336 89 244 0.0 3.0 0.00 0.00 0.00 11 1007.2
20260508025343 89 246 1.0 5.0 0.00 0.00 0.00 11 1007.1
20260508024333 89 273 2.0 7.0 0.00 0.00 0.00 11 1007.0
20260508023339 90 264 1.0 8.0 0.00 0.00 0.00 11 1006.8
20260508022327 90 253 1.0 5.0 0.00 0.00 0.00 11 1006.8
20260508021333 91 222 1.0 8.0 0.00 0.00 0.00 10 1006.7
20260508020345 91 188 0.0 7.0 0.00 0.00 0.00 10 1006.7
20260508015332 92 263 2.0 9.0 0.00 0.00 0.00 10 1006.5
20260508014338 93 285 1.0 9.0 0.00 0.00 0.00 10 1006.5
20260508013405 93 224 1.0 10.0 0.00 0.00 0.00 10 1006.4
20260508012335 94 302 1.0 10.0 0.00 0.00 0.00 10 1006.4
20260508011342 94 295 4.0 11.0 0.00 0.00 0.00 10 1006.4
20260508010329 95 224 0.0 9.0 0.00 0.00 0.00 10 1006.4
20260508005336 95 254 2.0 12.0 0.00 0.00 0.00 9 1006.3
20260508004327 95 227 4.0 11.0 0.00 0.00 0.00 9 1006.2
20260508003336 95 186 3.0 12.0 0.00 0.00 0.00 9 1006.3
20260508002341 96 241 3.0 9.0 0.00 0.00 0.00 9 1006.3
20260508001327 96 248 2.0 11.0 0.00 0.00 0.00 9 1006.2
20260508000338 97 281 6.0 11.0 0.00 0.00 0.00 9 1006.3
20260507235344 97 188 0.0 6.0 0.00 0.00 0.00 8 1006.3
20260507234331 96 289 4.0 11.0 0.00 0.00 0.00 8 1006.4
20260507233338 96 293 5.0 10.0 0.00 0.00 0.00 8 1006.3
20260507232329 97 262 4.0 9.0 0.00 0.00 0.00 8 1006.4
20260507231337 97 290 4.0 8.0 0.00 0.00 0.00 8 1006.5
20260507230326 97 136 0.0 5.0 0.00 0.00 0.00 8 1006.5
20260507225332 97 131 3.0 7.0 0.00 0.00 0.00 8 1006.6
20260507224403 97 211 1.0 5.0 0.00 0.00 0.00 7 1006.7
20260507223349 97 206 0.0 3.0 0.00 0.00 0.00 8 1006.8
20260507222355 96 279 2.0 7.0 0.00 0.00 0.00 8 1006.9
20260507221340 96 300 3.0 8.0 0.00 0.00 0.00 8 1007.0
20260507220348 96 105 1.0 8.0 0.00 0.00 0.00 8 1007.1
20260507215337 96 175 6.0 11.0 0.00 0.00 0.00 8 1007.3
20260507214325 95 229 1.0 6.0 0.00 0.00 0.00 9 1007.5
20260507213332 95 84 1.0 7.0 0.00 0.00 0.00 8 1007.7
20260507212340 95 83 2.0 10.0 0.00 0.00 0.00 9 1007.8
20260507211329 97 317 1.0 7.0 0.00 0.00 0.00 9 1008.0
20260507210356 96 155 1.0 6.0 0.00 0.00 0.00 9 1008.1
20260507205341 95 155 0.0 9.0 0.00 0.00 0.00 9 1008.3
20260507204349 95 225 1.0 7.0 0.00 0.00 0.00 9 1008.4
20260507203340 95 191 7.0 9.0 0.00 0.00 0.00 9 1008.6
20260507202328 95 83 0.0 4.0 0.00 0.00 0.00 9 1008.7
20260507201335 94 335 0.0 0.0 0.00 0.00 0.00 9 1008.8
20260507200342 94 342 0.0 1.0 0.00 0.00 0.00 9 1009.0
20260507195333 93 64 0.0 5.0 0.00 0.00 0.00 10 1009.2
20260507194340 94 9 0.0 4.0 0.00 0.00 0.00 9 1009.5
20260507193329 94 290 0.0 4.0 0.00 0.00 0.00 11 1009.7
20260507192326 93 155 0.0 0.0 0.00 0.00 0.00 10 1009.9
20260507191334 93 192 0.0 3.0 0.00 0.00 0.00 11 1010.1
20260507190340 92 206 2.0 6.0 0.00 0.00 0.00 11 1010.2
20260507185327 91 208 2.0 8.0 0.00 0.00 0.00 12 1010.3
20260507184338 91 116 0.0 0.0 0.00 0.00 0.00 12 1010.5
20260507183344 91 86 0.0 0.0 0.00 0.00 0.00 11 1010.6
20260507182331 90 191 0.0 0.0 0.00 0.00 0.00 11 1010.7
20260507181339 89 154 0.0 6.0 0.00 0.00 0.00 12 1010.9
20260507180351 89 107 0.0 7.0 0.00 0.00 0.00 12 1010.9
20260507175337 88 144 3.0 7.0 0.00 0.00 0.00 13 1011.0
20260507174344 88 263 0.0 5.0 0.00 0.00 0.00 14 1011.1
20260507173330 87 142 0.0 7.0 0.00 0.00 0.00 14 1011.1
20260507172342 87 5 2.0 6.0 0.00 0.00 0.00 13 1011.2
20260507171328 87 232 2.0 7.0 0.00 0.00 0.00 15 1011.4
20260507170334 86 302 1.0 5.0 0.00 0.00 0.00 14 1011.4
20260507165341 85 277 2.0 8.0 0.00 0.00 0.00 15 1011.6
20260507164333 84 240 0.0 3.0 0.00 0.00 0.00 17 1011.6
20260507163400 83 209 0.0 3.0 0.00 0.00 0.00 19 1011.6
20260507162344 83 243 0.0 5.0 0.00 0.00 0.00 20 1011.8
20260507161331 83 211 3.0 5.0 0.00 0.00 0.00 20 1011.8
20260507160338 82 134 2.0 4.0 0.00 0.00 0.00 20 1011.9
20260507155330 81 203 2.0 3.0 0.00 0.00 0.00 22 1012.0
20260507154355 80 198 0.0 4.0 0.00 0.00 0.00 23 1012.0
20260507153341 79 140 0.0 0.0 0.00 0.00 0.00 23 1012.0
20260507152327 79 236 0.0 0.0 0.00 0.00 0.00 24 1012.0
20260507151337 78 138 0.0 0.0 0.00 0.00 0.00 24 1012.1
20260507150343 77 146 0.0 0.0 0.00 0.00 0.00 25 1012.0
20260507145329 76 184 0.0 0.0 0.00 0.00 0.00 25 1012.1
20260507144335 75 179 0.0 0.0 0.00 0.00 0.00 27 1012.1
20260507143327 73 152 0.0 0.0 0.00 0.00 0.00 30 1012.1
20260507142333 71 153 0.0 0.0 0.00 0.00 0.00 31 1012.1
20260507141341 69 173 0.0 0.0 0.00 0.00 0.00 37 1012.0